Iliamna, AK

10:46 AM AKDT on March 27, 2017 (GMT -0800)
Iliamna

Weather History for PAIL - January, 2013

Change the Weather History Date:

Thursday, January 10, 2013

  Actual Average Record
Temperature  
Mean Temperature 32 °F -  
Max Temperature 37 °F 19 °F 45 °F (2003)
Min Temperature 28 °F 8 °F -22 °F (1956)
Degree Days  
Heating Degree Days 32    
Moisture  
Dew Point 29 °F    
Average Humidity 91    
Maximum Humidity 100    
Minimum Humidity 73    
Precipitation  
Precipitation 0.01 in - - ()
Snow  
Snow 0.00 in - - ()
Snow Depth 6.00 in    
Sea Level Pressure  
Sea Level Pressure 29.96 in    
Wind  
Wind Speed 11 mph (SE)    
Max Wind Speed 22 mph    
Max Gust Speed 36 mph    
Visibility 7 miles    
Events Snow    
Averages and records for this station are not official NWS values.
T = Trace of Precipitation, MM = Missing Value Source: NWS Daily Summary

Daily Weather History Graph

Daily Weather History Graph

Search for Another Location

Airport or City:

Trip Planner

Search our weather history database for the weather conditions in past years. The results will help you decide how hot, cold, wet, or windy it might be!

Date:

Astronomy

Jan. 10, 2013 Rise Set
Actual Time 10:11 AM AKST 4:43 PM AKST
Civil Twilight 9:17 AM AKST 5:37 PM AKST
Nautical Twilight 8:23 AM AKST 6:31 PM AKST
Astronomical Twilight 7:33 AM AKST 7:21 PM AKST
Moon 8:58 AM AKST (1/10) 4:09 PM AKST (1/10)
Length of Visible Light 8h 19m
Length of Day
6h 32m
Waning Crescent, 1% of the Moon is Illuminated
Jan 10
Waning Crescent
Jan 11
New
Jan 18
First Quarter
Jan 26
Full
Feb 3
Last Quarter

Hourly Weather History & Observations

Time (AKST) Temp. Windchill Dew Point Humidity Pressure Visibility Wind Dir Wind Speed Gust Speed Precip Events Conditions
12:10 AM 32.0 °F 25.6 °F 30.2 °F 93% 29.88 in 3.0 mi SSE 6.9 mph - 0.00 in Snow Light Snow
12:53 AM 32.0 °F 22.5 °F 28.9 °F 88% 29.92 in 10.0 mi SSE 12.7 mph - 0.00 in   Overcast
1:09 AM 30.2 °F 20.2 °F 30.2 °F 100% 29.91 in 1.8 mi SSE 12.7 mph - 0.00 in Snow Light Snow
1:18 AM 30.2 °F 19.8 °F 30.2 °F 100% 29.92 in 1.2 mi SSE 13.8 mph - 0.00 in Snow Light Snow
1:25 AM 30.2 °F 19.8 °F 30.2 °F 100% 29.92 in 1.2 mi SSE 13.8 mph 19.6 mph 0.00 in Snow Light Snow
1:53 AM 30.0 °F 20.0 °F 30.0 °F 100% 29.95 in 1.5 mi SSE 12.7 mph - 0.00 in Snow Light Snow
2:24 AM 30.2 °F 20.8 °F 30.2 °F 100% 29.94 in 1.5 mi SSE 11.5 mph - 0.01 in Snow Light Snow
2:34 AM 30.2 °F 21.3 °F 30.2 °F 100% 29.95 in 2.0 mi SSE 10.4 mph - 0.01 in Snow Light Snow
2:41 AM 30.2 °F 20.8 °F 30.2 °F 100% 29.96 in 1.2 mi SSE 11.5 mph - 0.01 in Snow Light Snow
3:05 AM 30.2 °F 19.8 °F 30.2 °F 100% 29.95 in 2.0 mi SSE 13.8 mph - 0.00 in Snow Light Snow
3:11 AM 30.2 °F 20.2 °F 30.2 °F 100% 29.96 in 4.0 mi SSE 12.7 mph - 0.00 in Snow Light Snow
3:22 AM 30.2 °F 20.2 °F 30.2 °F 100% 29.96 in 1.8 mi SSE 12.7 mph - 0.00 in Snow Light Snow
3:36 AM 30.2 °F 21.3 °F 30.2 °F 100% 29.97 in 2.0 mi SSE 10.4 mph - 0.00 in Snow Light Snow
3:44 AM 30.2 °F 20.8 °F 30.2 °F 100% 29.97 in 1.5 mi SE 11.5 mph - 0.01 in Snow Light Snow
3:53 AM 30.0 °F 20.5 °F 30.0 °F 100% 29.97 in 3.0 mi SE 11.5 mph - 0.01 in Snow Light Snow
4:53 AM 30.9 °F 21.7 °F 28.9 °F 92% 29.99 in 10.0 mi SE 11.5 mph - 0.00 in   Overcast
5:53 AM 30.9 °F 22.8 °F 28.9 °F 92% 30.01 in 10.0 mi SSE 9.2 mph - 0.00 in   Overcast
6:53 AM 30.9 °F 22.8 °F 28.9 °F 92% 30.02 in 10.0 mi SE 9.2 mph - N/A   Overcast
7:53 AM 30.9 °F 24.3 °F 28.9 °F 92% 30.04 in 10.0 mi SE 6.9 mph - N/A   Overcast
8:53 AM 30.0 °F - 28.9 °F 96% 30.05 in 10.0 mi Calm Calm - N/A   Overcast
9:17 AM 30.2 °F - 28.4 °F 93% 30.03 in 10.0 mi Calm Calm - N/A   Overcast
9:30 AM 30.2 °F - 28.4 °F 93% 30.03 in 10.0 mi Calm Calm - N/A   Overcast
9:43 AM 30.2 °F 23.4 °F 28.4 °F 93% 30.04 in 10.0 mi South 6.9 mph - N/A   Overcast
9:53 AM 30.0 °F 24.1 °F 28.0 °F 92% 30.06 in 10.0 mi SSE 5.8 mph - N/A   Overcast
10:53 AM 28.9 °F 20.4 °F 27.0 °F 92% 30.06 in 10.0 mi SSE 9.2 mph - N/A   Overcast
11:53 AM 28.9 °F 20.4 °F 27.0 °F 92% 30.06 in 10.0 mi SE 9.2 mph - N/A   Overcast
12:53 PM 28.0 °F 19.3 °F 26.1 °F 92% 30.04 in 10.0 mi SE 9.2 mph - N/A   Overcast
1:53 PM 30.0 °F 23.2 °F 27.0 °F 88% 30.01 in 10.0 mi East 6.9 mph - N/A   Overcast
2:53 PM 30.9 °F 22.2 °F 27.0 °F 85% 29.99 in 10.0 mi East 10.4 mph - N/A   Overcast
3:53 PM 30.9 °F 22.2 °F 27.0 °F 85% 29.97 in 10.0 mi East 10.4 mph - N/A   Overcast
4:53 PM 32.0 °F 20.8 °F 24.8 °F 75% 29.97 in 10.0 mi East 17.3 mph 24.2 mph N/A   Overcast
5:53 PM 33.1 °F 21.2 °F 28.0 °F 82% 29.94 in 10.0 mi East 20.7 mph 28.8 mph N/A   Overcast
6:53 PM 35.1 °F 23.8 °F 28.9 °F 78% 29.87 in 10.0 mi East 20.7 mph 28.8 mph N/A   Overcast
7:53 PM 35.1 °F 23.5 °F 28.9 °F 78% 29.84 in 10.0 mi East 21.9 mph 35.7 mph 0.00 in   Overcast
8:53 PM 35.1 °F 24.8 °F 30.0 °F 82% 29.81 in 10.0 mi East 17.3 mph 31.1 mph N/A   Overcast
9:53 PM 36.0 °F 27.5 °F 30.0 °F 79% 29.81 in 10.0 mi East 12.7 mph 19.6 mph N/A   Overcast
10:53 PM 37.0 °F 26.2 °F 28.9 °F 73% 29.77 in 10.0 mi East 21.9 mph 32.2 mph N/A   Overcast
11:53 PM 37.0 °F 27.0 °F 28.9 °F 73% 29.77 in 10.0 mi East 18.4 mph 27.6 mph N/A   Overcast